GFSFLT2_con_lsi_183.txt.gz
Lid_Strength_Index
2 2 2 2 3 3 3 3 3 4 8 11 6 6 4 5 4 5 6 5 6 7 8 9 8 9 10 9
2 2 2 3 3 3 3 3 2 5 11 7 5 6 4 6 4 3 3 3 5 6 7 7 8 10 11 12
2 2 3 4 4 3 3 2 5 6 10 4 7 8 7 7 6 4 3 4 5 8 8 10 12 12 14 14
3 3 4 5 5 7 7 3 4 8 8 10 9 8 8 7 7 5 6 7 9 10 11 11 16 15 14 14
3 4 8 11 13 12 12 13 13 12 9 10 8 8 7 6 6 7 9 9 11 12 11 11 12 12 13 13
3 6 10 13 13 13 15 11 12 12 11 10 11 8 6 9 8 11 9 10 12 10 9 10 11 11 12 12
5 11 12 12 10 10 14 12 11 11 10 9 9 9 7 8 10 11 11 12 11 9 9 10 11 11 12 12
7 12 11 10 10 9 16 14 11 8 7 7 10 9 9 8 9 11 11 11 10 10 11 11 10 13 10 10
8 11 10 10 9 11 20 12 10 7 10 10 11 10 9 8 11 11 11 12 12 13 12 12 10 11 11 11
10 10 10 10 11 16 19 13 12 13 14 13 13 12 11 11 10 12 12 13 12 13 13 13 11 11 12 11
8 10 10 11 15 19 13 15 15 14 15 15 15 14 14 14 15 16 16 14 14 14 13 14 12 12 13 16
9 10 12 13 18 15 15 13 14 15 16 16 16 15 15 16 16 15 17 17 16 15 14 14 15 14 13 16
6 9 13 17 16 15 13 14 14 17 17 16 17 17 17 17 15 15 15 17 17 14 14 14 14 15 17 15
8 10 13 15 15 13 13 14 16 14 17 17 17 17 17 15 15 14 14 15 18 15 14 13 14 15 14 18
9 13 15 16 14 12 12 13 14 14 14 15 16 16 15 14 13 14 13 15 16 17 15 16 17 16 17 16
14 14 16 13 11 13 13 12 14 13 13 12 13 13 15 13 11 12 15 14 16 19 17 15 14 14 16 15
15 17 15 15 13 12 12 12 12 12 13 14 14 13 13 10 11 12 14 13 16 20 18 17 15 16 16 16

GFSFLT2_con_lsi_186.txt.gz
Lid_Strength_Index
1 1 2 2 3 3 2 3 3 3 7 8 4 3 2 3 3 5 6 5 5 6 6 8 7 7 9 7
2 2 2 3 3 2 3 3 2 4 8 5 3 5 4 5 3 2 3 3 4 5 6 5 7 8 8 10
2 2 3 4 4 3 2 2 3 4 8 2 6 6 5 6 4 3 3 3 4 6 6 8 9 9 11 11
2 3 4 4 5 6 7 3 3 6 6 8 7 7 6 6 5 3 4 4 5 7 8 9 12 11 11 10
2 4 6 6 7 7 8 10 10 10 9 7 7 7 6 6 5 5 7 6 8 10 8 7 8 9 10 10
3 6 6 9 11 10 12 9 9 10 8 8 9 7 6 7 7 9 7 8 10 7 7 8 8 9 10 10
5 6 8 10 8 8 11 9 9 9 8 8 8 7 6 7 8 10 9 10 9 8 9 9 10 9 10 10
4 6 9 8 8 7 11 11 9 8 7 6 9 8 7 7 8 10 9 9 8 9 10 10 9 11 8 9
5 6 8 7 7 7 14 10 9 6 8 9 9 9 8 7 10 9 9 10 10 10 10 10 9 10 10 9
4 6 6 7 7 11 15 12 10 11 11 11 11 10 9 8 8 10 9 10 10 11 10 10 10 9 10 9
5 5 5 8 11 13 10 13 12 12 12 12 12 12 12 11 12 13 12 11 11 11 12 12 10 11 11 14
4 4 7 8 14 12 12 11 12 12 13 13 13 13 13 12 12 12 13 13 14 12 12 12 12 11 10 14
4 3 8 12 13 11 11 12 11 13 12 14 14 13 13 12 11 11 13 13 13 13 13 12 12 11 13 10
5 6 9 12 11 10 11 12 14 12 13 12 12 11 11 11 11 11 11 11 14 12 12 11 11 12 11 14
7 10 13 12 12 10 10 11 12 12 12 12 11 11 12 9 9 10 11 11 13 12 12 13 13 13 14 13
11 11 12 11 11 10 9 10 10 10 11 11 12 11 11 9 10 10 11 10 12 14 13 12 12 13 14 14
13 12 11 12 11 10 10 10 10 10 11 11 13 11 11 10 9 10 10 10 12 15 15 13 13 14 13 13

GFSFLT2_con_lsi_189.txt.gz
Lid_Strength_Index
1 1 1 1 2 3 2 2 2 3 6 7 4 2 2 3 3 4 5 5 4 5 5 7 6 6 8 6
1 1 2 3 3 3 3 2 2 3 7 4 2 4 4 4 3 2 3 3 3 5 5 5 6 8 7 9
2 2 3 4 3 3 2 2 2 4 7 3 5 5 4 5 4 3 2 3 4 5 5 7 8 7 10 9
2 2 4 3 4 5 5 4 3 5 6 7 6 6 4 5 5 4 4 4 5 7 7 8 12 10 10 9
2 3 4 3 6 6 7 9 9 9 8 6 5 6 5 5 5 5 7 5 8 9 8 7 7 8 9 10
3 5 4 8 9 9 11 8 8 8 7 7 8 6 5 7 7 8 7 7 10 7 6 7 8 9 10 10
2 4 6 8 6 7 10 8 7 7 7 6 7 7 6 6 8 8 8 9 8 7 8 8 9 9 10 10
4 4 6 5 5 6 10 9 8 7 6 6 8 6 6 6 7 9 8 9 7 8 9 9 9 11 8 9
4 5 5 3 5 6 14 9 8 5 7 8 8 8 6 7 9 9 9 10 9 9 10 9 8 10 8 9
3 3 2 3 6 10 14 11 9 10 9 9 9 8 8 7 7 9 9 9 7 9 9 9 8 8 9 9
5 3 2 5 10 12 9 11 11 10 10 10 10 10 10 10 11 12 12 9 9 8 10 11 8 9 11 14
2 2 3 8 13 10 10 9 10 10 11 11 11 11 11 11 9 10 11 13 14 9 9 10 11 10 10 14
3 2 6 12 11 10 10 11 11 12 12 12 12 11 10 10 9 9 12 12 13 9 10 10 10 10 11 8
3 4 9 12 11 10 10 10 13 11 13 11 11 10 10 9 10 9 9 10 14 9 9 10 9 11 8 13
5 8 12 11 11 9 9 11 11 11 11 11 10 11 11 9 8 9 9 9 11 12 9 10 10 10 11 11
10 9 11 10 11 10 8 9 9 10 10 10 11 11 11 9 9 9 11 8 10 13 11 8 9 10 12 12
12 12 10 11 10 10 10 10 11 9 9 11 13 10 9 7 8 8 9 8 11 15 12 10 10 12 11 11

GFSFLT2_con_lsi_192.txt.gz
Lid_Strength_Index
1 1 1 1 2 2 2 2 1 3 6 8 4 2 3 4 3 4 5 4 4 6 5 7 5 6 9 8
1 1 1 2 3 2 2 1 1 3 8 4 3 4 4 4 3 3 3 2 3 5 6 5 6 8 8 11
2 2 2 3 2 3 2 1 3 4 7 3 6 5 4 5 4 3 2 3 3 5 5 8 10 9 12 10
2 2 3 2 2 4 5 5 3 7 6 7 6 6 5 5 5 4 4 4 5 8 8 9 14 12 11 10
2 2 4 4 6 7 7 9 9 9 8 6 5 6 5 5 5 6 8 6 9 11 9 8 8 9 10 11
3 3 4 7 9 9 12 7 8 7 7 7 8 6 5 7 7 9 7 8 11 7 7 7 9 9 11 11
3 3 6 7 5 6 11 8 7 7 7 6 7 7 6 6 8 9 9 10 8 7 8 9 10 10 11 11
3 3 6 4 4 6 11 10 8 7 6 6 8 6 6 7 8 10 9 10 8 8 9 10 9 12 9 9
4 5 4 3 4 6 16 9 8 5 7 8 8 8 6 7 10 10 9 11 10 10 10 9 8 11 8 10
3 3 3 2 4 11 15 11 9 10 9 9 8 8 9 7 8 10 10 10 8 8 9 8 8 8 10 10
5 3 3 5 11 14 8 11 11 9 10 11 10 10 10 12 12 14 14 11 10 8 8 11 9 10 12 16
3 3 4 9 14 10 11 9 10 11 12 11 11 11 12 13 10 11 13 14 16 11 10 10 12 12 11 16
4 4 7 13 12 11 11 12 11 13 12 11 12 12 12 12 11 10 14 15 15 10 9 9 10 12 14 9
4 5 10 12 11 10 10 11 15 13 14 13 13 12 12 10 10 9 9 11 16 11 10 8 9 10 9 14
5 9 13 12 11 9 10 12 13 13 13 13 12 12 12 10 10 9 9 10 12 13 10 11 11 11 12 11
11 10 12 11 11 11 9 10 10 11 12 12 13 13 12 10 9 9 11 9 11 15 13 9 8 10 12 12
12 12 10 11 10 11 10 11 11 10 10 12 14 11 11 7 8 9 10 9 12 16 14 11 9 11 11 11

GFSFLT2_con_lsi_195.txt.gz
Lid_Strength_Index
1 1 1 1 1 1 2 1 1 3 7 9 5 4 3 5 4 4 5 5 6 8 8 9 7 7 10 9
2 2 1 2 2 2 2 1 1 4 10 5 5 5 5 5 4 4 4 4 4 6 7 7 8 10 10 13
2 2 2 2 1 1 2 2 4 5 9 3 7 6 7 6 5 4 3 3 5 7 7 10 12 11 14 12
2 2 2 2 2 4 4 5 5 9 8 9 7 7 7 6 6 6 5 6 7 10 10 12 16 13 13 12
2 2 4 7 10 9 10 11 10 10 8 7 7 8 6 7 7 8 10 8 11 13 10 10 10 11 12 13
3 3 6 9 10 10 13 8 8 8 7 8 9 8 6 9 9 11 10 11 12 9 8 9 10 11 13 13
3 5 7 8 6 8 13 9 8 7 8 7 8 9 7 8 10 11 11 13 11 8 9 10 11 12 13 13
5 5 7 5 7 7 14 11 9 8 7 6 9 7 7 8 10 12 11 12 10 10 11 11 11 14 10 11
6 6 5 5 7 9 18 10 9 6 8 9 9 9 7 9 12 11 12 13 12 12 13 12 11 12 10 11
6 6 5 5 7 14 17 12 9 10 11 10 10 9 10 9 9 12 12 13 10 11 12 11 10 10 11 12
8 5 5 7 14 16 11 13 12 11 12 12 12 11 12 14 15 17 17 14 12 11 10 13 11 12 14 19
6 6 7 12 17 12 13 11 12 12 14 13 13 13 14 15 13 14 16 17 18 13 11 13 15 14 15 18
6 6 10 16 16 14 12 13 13 16 15 13 13 14 15 14 13 13 17 17 17 11 10 10 11 14 16 12
6 8 13 14 14 11 11 12 16 14 16 15 15 15 15 12 12 12 12 14 18 13 11 10 10 12 10 15
8 12 16 15 12 10 10 12 14 14 14 15 15 15 14 13 11 11 11 13 14 15 12 13 13 13 13 12
14 14 16 12 10 11 10 11 12 12 14 13 15 14 14 13 10 10 13 12 13 17 14 10 9 12 13 13
18 16 13 12 11 11 12 12 13 12 12 14 16 13 12 9 9 10 11 11 15 20 17 15 11 12 11 11

GFSFLT2_con_lsi_198.txt.gz
Lid_Strength_Index
1 1 1 1 1 1 1 2 1 3 8 9 5 5 4 5 5 5 6 5 6 8 8 10 8 8 10 9
2 1 1 1 1 1 2 2 1 4 10 5 5 6 6 6 5 5 4 4 5 7 8 8 8 10 11 13
2 2 2 2 1 2 2 2 5 6 10 4 7 7 7 7 6 5 5 3 5 8 8 11 12 12 14 13
2 2 2 2 3 4 5 6 6 10 9 9 8 7 7 6 7 7 6 6 8 10 11 12 16 14 14 13
2 2 5 8 10 10 10 12 11 10 9 7 7 8 7 7 7 9 11 9 11 13 11 10 10 11 13 14
3 3 7 9 9 10 13 9 8 9 8 8 9 8 7 10 10 12 11 12 13 10 9 9 11 12 13 14
3 6 7 8 7 9 13 10 8 8 8 7 9 10 8 9 11 12 12 14 12 9 10 12 13 13 13 13
6 7 8 6 8 8 14 11 9 8 7 7 9 7 8 9 11 13 12 13 11 12 13 13 12 15 11 12
7 8 6 6 7 9 18 10 10 7 9 10 10 9 8 10 13 13 13 14 13 13 13 13 12 14 12 13
6 6 6 6 9 14 17 13 10 11 12 11 11 10 11 10 10 12 13 13 10 12 13 12 12 12 13 14
8 6 7 9 16 17 11 13 13 12 13 13 13 12 13 14 15 17 17 14 13 12 11 14 12 13 16 20
7 7 8 13 18 13 14 11 12 13 15 13 14 13 14 16 14 15 17 19 19 14 12 14 15 15 16 19
6 7 12 17 17 15 12 13 13 16 16 13 14 15 16 16 15 14 18 18 18 12 11 11 12 15 17 13
7 9 14 15 15 12 12 12 16 15 17 16 16 16 16 14 13 13 14 16 19 14 12 11 11 13 12 16
9 12 16 15 13 11 11 13 15 15 16 16 16 17 16 14 13 12 12 14 17 17 14 14 14 14 15 14
15 15 16 13 10 12 11 12 13 13 15 15 16 16 16 14 11 12 14 14 16 19 16 11 10 12 13 13
18 18 14 13 13 13 12 13 14 13 13 15 17 15 14 11 11 11 13 13 17 21 19 16 14 14 12 11